Location: Bun Machan
(52.1403°N, 7.3744°W)
Time: 18:14:53
(UTC+00:00)

SL-16 R/B - Pass Details

Date: 14 July 2020
Orbit: 985 x 1007 km, 99.5° (Epoch: 13 August)

Event Time Altitude Azimuth Distance (km) Brightness Sun altitude
Exits shadow 01:57:01 12° 163° (SSE) 2,620 4.3 -14.1°
Maximum altitude 02:02:52 86° 252° (WSW) 1,015 2.6 -13.8°
Drops below altitude 10° 02:09:12 10° 343° (NNW) 2,796 5.7 -13.4°
Sets 02:11:42 0° 344° (NNW) 3,750 6.4 -13.3°
